STARLINK-34900, 65374

Orbit data source: Space-Track

STARLINK-34900, 65374 is a payload satellite owned by SpaceX/Seattle (US) in LEO that was launched on Thu, 28 Aug 2025 UTC via an FALCON 9 launch vehicle from the Air Force Eastern Test Range (AFETR). Payload-class satellites include a variety of spacecraft equipped with specific instruments for various scientific and technological missions. These include communications satellites like Starlink; space stations such as the ISS; scientific satellites like the Hubble; Earth observation satellites from companies like Planet Labs, Umbra, and HawkEye 360; GPS; miniature CubeSats for education and research; and military/defense satellites.

Loading next visibility...
Identifier
65374, 2025-190Z
Orbit
LEO
Country
Flag of USUS
Related business
Manufacturer
SpaceX/Seattle
Mission
Operational Commercial Communications
Bus & Motor
STARLINK V2MO, Unknown motor
Mass
575 kg wet, ~530 kg dry
Launch date (UTC)
2025-08-28 (7 months ago)
Launch vehicle
FALCON 9
Launch site
Air Force Eastern Test Range (AFETR)
Object type
Payload
Rocket body
Debris
Shape & HBR
Box + 2 Pan, 17.7 m
Radar Cross Section
36.964 m², Large (>1 m²)

Expand to show TLE details & history
Last TLE update: 7 hours ago

TLE from 7 hours ago
0 STARLINK-34900
1 65374U 25190Z   26094.27125407  .00049704  00000-0  16793-2 0  9993
2 65374  53.1608  49.2180 0001288  80.4985 279.6161 15.30196861 33151
Epoch: 2026-04-04T06:30Z
TLE epoch observation values (Epoch: 2026-04-04T06:30:36.351Z)
Latitude
-0.00005°
Longitude
118.97307°
Altitude
475.977 km
Speed
7.629 km/s
True Right ascension
03h 16m 52s
True Declination
0° 00' 00"
Sunlit
Object was in daylight at epoch
Visualization orbit readout
Latitude
Unknown
Longitude
Unknown
Altitude
Unknown
Speed
Unknown
Apparent Right ascension
Unknown
Apparent Declination
Unknown
Sunlit
N/A
Visualization observer readout
Local Sidereal Time
19:34:06
Azimuth
Unknown
Elevation
Unknown
Doppler factor
Unknown
Orbital elements
Apogee altitude
476.363 km
Perigee altitude
474.598 km
Semi-major axis
6,853.618 km
Eccentricity
0.00013
Inclination
53.1608°
RAAN
49.218°
Arg. of periapsis
80.4985°
True anomaly
279.60155°
Mean anomaly
279.6161°
Eccentric anomaly
279.60882°
Mean motion
3.82528 °/min
Orbital period
94.11 mins
BSTAR
0.0016793
Loading maneuver chart data...
Computing Atmospheric mass density...
Loading historical data...
Loading historical data...
Loading historical data...
Loading historical data...
Loading historical data...
Loading historical data...
Loading historical data...

Documentation

Showing up to 5 results
|